Location: Bouillancy
(49.1149°N, 2.9308°E)
Time: 22:19:31
(UTC+00:00)

Cosmos 1766 - Pass Details

Date: 30 September 2020
Orbit: 522 x 544 km, 82.5° (Epoch: 25 October)

Event Time Altitude Azimuth Distance (km) Brightness Sun altitude
Rises 19:06:14 0° 200° (SSW) 2,675 6.9 -16.7°
Reaches altitude 10° 19:08:24 10° 205° (SSW) 1,793 6.0 -17.1°
Maximum altitude 19:12:17 54° 283° (WNW) 664 4.1 -17.7°
Drops below altitude 10° 19:16:12 10° 1° (N) 1,819 6.1 -18.3°
Sets 19:18:25 0° 7° (N) 2,718 7.0 -18.6°
